Minneapolis, MN

11:43 AM CST on February 21, 2017 (GMT -0600)
Crystal

Weather History for KMIC - April, 2013

Change the Weather History Date:

Tuesday, April 23, 2013

  Actual Average Record
Temperature  
Mean Temperature 34 °F -  
Max Temperature 42 °F 59 °F 84 °F (2009)
Min Temperature 26 °F 36 °F 26 °F (2013)
Degree Days  
Heating Degree Days 32    
Moisture  
Dew Point 25 °F    
Average Humidity 76    
Maximum Humidity 93    
Minimum Humidity 41    
Precipitation  
Precipitation 0.00 in - - ()
Sea Level Pressure  
Sea Level Pressure 30.13 in    
Wind  
Wind Speed 12 mph (NW)    
Max Wind Speed 15 mph    
Max Gust Speed 23 mph    
Visibility 7 miles    
Events Snow    
Averages and records for this station are not official NWS values.
T = Trace of Precipitation, MM = Missing Value Source: NWS Daily Summary

Daily Weather History Graph

Daily Weather History Graph

Search for Another Location

Airport or City:

Trip Planner

Search our weather history database for the weather conditions in past years. The results will help you decide how hot, cold, wet, or windy it might be!

Date:

Astronomy

Apr. 23, 2013 Rise Set
Actual Time 6:14 AM CDT 8:09 PM CDT
Civil Twilight 5:43 AM CDT 8:41 PM CDT
Nautical Twilight 5:04 AM CDT 9:19 PM CDT
Astronomical Twilight 4:22 AM CDT 10:02 PM CDT
Moon 6:00 PM CDT (4/23) 4:49 AM CDT (4/23)
Length of Visible Light 14h 57m
Length of Day
13h 54m
Waxing Gibbous, 94% of the Moon is Illuminated
Apr 23
Waxing Gibbous
Apr 25
Full
May 2
Last Quarter
May 9
New
May 17
First Quarter

Hourly Weather History & Observations

Time (CDT) Temp. Windchill Dew Point Humidity Pressure Visibility Wind Dir Wind Speed Gust Speed Precip Events Conditions
12:38 AM 32.0 °F 22.1 °F 30.2 °F 93% 30.12 in 2.0 mi NNW 13.8 mph 21.9 mph 0.00 in Snow Light Snow
12:49 AM 32.0 °F 21.6 °F 28.4 °F 87% 30.12 in 3.0 mi NNW 15.0 mph - 0.00 in Snow Light Snow
1:06 AM 32.0 °F 22.5 °F 28.4 °F 87% 30.13 in 2.5 mi North 12.7 mph 23.0 mph 0.00 in Snow Light Snow
1:21 AM 30.2 °F 20.2 °F 28.4 °F 93% 30.12 in 1.8 mi NNW 12.7 mph - 0.00 in Snow Light Snow
1:51 AM 30.2 °F 20.2 °F 28.4 °F 93% 30.14 in 2.0 mi NNW 12.7 mph - 0.00 in Snow Light Snow
1:53 AM 30.9 °F 21.2 °F 28.9 °F 92% 30.17 in 2.0 mi NNW 12.7 mph - 0.00 in Snow Light Snow
2:20 AM 30.2 °F 19.8 °F 28.4 °F 93% 30.14 in 2.5 mi NNW 13.8 mph - 0.00 in Snow Light Snow
2:29 AM 30.2 °F 20.8 °F 28.4 °F 93% 30.14 in 2.0 mi NNW 11.5 mph - 0.00 in Snow Light Snow
2:53 AM 30.9 °F 20.7 °F 28.9 °F 92% 30.16 in 3.0 mi NNW 13.8 mph - 0.00 in Snow Light Snow
3:03 AM 30.2 °F 19.3 °F 28.4 °F 93% 30.12 in 2.5 mi NNW 15.0 mph - 0.00 in Snow Light Snow
3:11 AM 30.2 °F 20.8 °F 28.4 °F 93% 30.13 in 2.0 mi NNW 11.5 mph - 0.00 in Snow Light Snow
3:14 AM 30.2 °F 20.2 °F 28.4 °F 93% 30.12 in 2.5 mi NNW 12.7 mph - 0.00 in Snow Light Snow
3:28 AM 30.2 °F 20.8 °F 28.4 °F 93% 30.13 in 2.5 mi NNW 11.5 mph - 0.00 in Snow Light Snow
3:34 AM 30.2 °F 21.3 °F 28.4 °F 93% 30.12 in 3.0 mi NNW 10.4 mph - 0.00 in Snow Light Snow
3:53 AM 30.0 °F 21.1 °F 28.0 °F 92% 30.14 in 5.0 mi NNW 10.4 mph - 0.00 in   Overcast
4:08 AM 30.2 °F 21.9 °F 28.4 °F 93% 30.11 in 7.0 mi NNW 9.2 mph - N/A   Overcast
4:26 AM 30.2 °F 20.2 °F 26.6 °F 86% 30.11 in 8.0 mi NNW 12.7 mph - N/A   Mostly Cloudy
5:36 AM 30.2 °F 20.8 °F 26.6 °F 86% 30.13 in 10.0 mi NW 11.5 mph - N/A   Overcast
5:53 AM 30.0 °F 23.2 °F 27.0 °F 88% 30.17 in 10.0 mi WNW 6.9 mph - N/A   Overcast
6:53 AM 28.0 °F 18.6 °F 23.0 °F 81% 30.18 in 10.0 mi NW 10.4 mph - N/A   Overcast
7:53 AM 26.1 °F 16.8 °F 21.0 °F 81% 30.18 in 10.0 mi NW 9.2 mph - N/A   Partly Cloudy
8:53 AM 28.9 °F 20.4 °F 21.9 °F 75% 30.17 in 10.0 mi NW 9.2 mph - N/A   Clear
9:53 AM 30.9 °F 22.8 °F 24.1 °F 76% 30.18 in 10.0 mi NNW 9.2 mph - N/A   Clear
10:53 AM 32.0 °F 24.2 °F 23.0 °F 69% 30.16 in 10.0 mi NW 9.2 mph - N/A   Clear
11:53 AM 34.0 °F 26.6 °F 23.0 °F 64% 30.16 in 10.0 mi NW 9.2 mph - N/A   Clear
12:53 PM 36.0 °F 27.1 °F 24.1 °F 62% 30.14 in 10.0 mi NW 13.8 mph - N/A   Clear
1:53 PM 37.9 °F 30.5 °F 23.0 °F 55% 30.12 in 10.0 mi NW 11.5 mph 18.4 mph N/A   Scattered Clouds
2:53 PM 39.0 °F 30.6 °F 21.9 °F 50% 30.12 in 10.0 mi WNW 15.0 mph 20.7 mph N/A   Mostly Cloudy
3:53 PM 39.0 °F 34.0 °F 21.0 °F 49% 30.11 in 10.0 mi NW 6.9 mph - N/A   Partly Cloudy
4:53 PM 41.0 °F 34.3 °F 21.0 °F 45% 30.08 in 10.0 mi NW 11.5 mph - N/A   Scattered Clouds
5:53 PM 41.0 °F 35.2 °F 19.0 °F 41% 30.08 in 10.0 mi NW 9.2 mph - N/A   Partly Cloudy
6:53 PM 39.9 °F 32.1 °F 18.0 °F 41% 30.08 in 10.0 mi WNW 13.8 mph - N/A   Clear
7:53 PM 37.0 °F 28.9 °F 17.1 °F 44% 30.08 in 10.0 mi WNW 12.7 mph - N/A   Clear
8:53 PM 35.1 °F 28.6 °F 19.0 °F 52% 30.10 in 10.0 mi West 8.1 mph - N/A   Clear
9:53 PM 33.1 °F 25.5 °F 19.9 °F 59% 30.12 in 10.0 mi West 9.2 mph - N/A   Clear
10:53 PM 32.0 °F 24.8 °F 21.0 °F 64% 30.11 in 10.0 mi West 8.1 mph - N/A   Clear
11:53 PM 30.9 °F 25.2 °F 21.0 °F 67% 30.09 in 10.0 mi WNW 5.8 mph - N/A   Clear